TimeEST,TemperatureF,Dew PointF,Humidity,Sea Level PressureIn,VisibilityMPH,Wind Direction,Wind SpeedMPH,Gust SpeedMPH,PrecipitationIn,Events,Conditions,WindDirDegrees,DateUTC
12:55 AM,3.9,-0.0,84,30.32,10.0,West,5.8,-,N/A,,Scattered Clouds,280,2014-03-05 05:55:00
1:55 AM,3.9,-0.9,80,30.35,10.0,NW,4.6,-,N/A,,Overcast,320,2014-03-05 06:55:00
2:55 AM,6.1,-0.9,73,30.36,10.0,NNE,4.6,-,N/A,,Partly Cloudy,20,2014-03-05 07:55:00
3:55 AM,3.9,-2.9,73,30.38,10.0,NNE,10.4,-,N/A,,Scattered Clouds,20,2014-03-05 08:55:00
4:55 AM,3.0,-5.1,69,30.41,10.0,NNE,8.1,-,N/A,,Clear,20,2014-03-05 09:55:00
5:55 AM,1.9,-7.1,66,30.43,10.0,NNE,10.4,-,N/A,,Clear,20,2014-03-05 10:55:00
6:55 AM,-0.0,-8.0,69,30.48,10.0,NE,6.9,-,N/A,,Clear,40,2014-03-05 11:55:00
7:55 AM,-0.0,-9.0,66,30.51,10.0,NE,8.1,-,N/A,,Clear,50,2014-03-05 12:55:00
8:55 AM,1.9,-8.0,63,30.56,10.0,ENE,6.9,-,N/A,,Clear,70,2014-03-05 13:55:00
9:55 AM,5.0,-7.1,58,30.56,10.0,ENE,6.9,-,N/A,,Clear,60,2014-03-05 14:55:00
10:55 AM,9.0,-6.0,51,30.58,10.0,Calm,Calm,-,N/A,,Clear,0,2014-03-05 15:55:00
11:55 AM,12.0,-5.1,46,30.59,10.0,Calm,Calm,-,N/A,,Clear,0,2014-03-05 16:55:00
12:55 PM,15.1,-5.1,41,30.59,10.0,WSW,3.5,-,N/A,,Clear,240,2014-03-05 17:55:00
1:55 PM,16.0,-2.9,43,30.59,10.0,Variable,5.8,-,N/A,,Clear,0,2014-03-05 18:55:00
2:55 PM,17.1,-4.0,39,30.59,10.0,Calm,Calm,-,N/A,,Clear,0,2014-03-05 19:55:00
3:55 PM,17.1,-6.0,36,30.60,10.0,Variable,3.5,-,N/A,,Clear,0,2014-03-05 20:55:00
4:55 PM,17.1,-4.0,39,30.59,10.0,NW,4.6,-,N/A,,Clear,320,2014-03-05 21:55:00
5:55 PM,16.0,-5.1,39,30.60,10.0,NW,5.8,-,N/A,,Clear,320,2014-03-05 22:55:00
6:55 PM,10.9,-5.1,49,30.61,10.0,NW,4.6,-,N/A,,Clear,310,2014-03-05 23:55:00
7:55 PM,8.1,-5.1,55,30.62,10.0,Calm,Calm,-,N/A,,Clear,0,2014-03-06 00:55:00
8:55 PM,1.0,-7.1,69,30.63,10.0,Calm,Calm,-,N/A,,Clear,0,2014-03-06 01:55:00
9:55 PM,1.0,-6.0,72,30.63,10.0,Calm,Calm,-,N/A,,Clear,0,2014-03-06 02:55:00
10:55 PM,-0.0,-6.0,76,30.61,7.0,ENE,3.5,-,N/A,,Clear,60,2014-03-06 03:55:00
11:55 PM,1.9,-6.0,69,30.60,10.0,ENE,4.6,-,N/A,,Clear,70,2014-03-06 04:55:00